#timestamp,LO_Frequency,Hit,StdDev 
1709424015.9,286046999.3,N
1709424035.7,286046999.3,N
1709424055.5,286046999.0,N
1709424075.4,286046998.6,N
1709424095.2,286046999.1,N
1709424115.0,286046999.2,N
1709424115.9,286046999.2,N
1709424135.8,286046997.0,N
1709424155.6,286046997.3,N
1709424175.5,286046997.4,N
1709424195.3,286046997.6,N
1709424215.1,286046995.7,Y
1709424235.9,286046995.3,P
1709424255.7,286046997.4,N
1709424275.6,286046997.8,N
1709424295.4,286046996.5,N
1709424315.2,286046996.8,N
1709424335.1,286046997.7,N
1709424336.0,286046997.7,N
1709424355.8,286046997.1,N
1709424375.7,286046997.1,Y
1709424395.5,286047000.6,P
1709424415.3,286047000.2,N
1709424435.2,286047002.4,N
1709424455.0,286047000.4,N
1709424456.0,286047000.4,N
1709424475.8,286047000.9,N
1709424495.6,286046998.7,N
1709424515.5,286046998.5,N
1709424535.3,286047000.8,N
1709424555.1,286046998.2,N
1709424575.9,286047000.4,N
1709424595.7,286046999.7,N
1709424615.6,286047002.6,N
1709424635.4,286047002.3,N
1709424655.2,286047002.4,N
1709424675.1,286047002.7,N
1709424676.0,286047002.7,N
1709424695.8,286047000.3,N
1709424715.6,286047000.1,N
1709424735.5,286047000.4,N
1709424755.3,286046999.7,N
1709424775.2,286047002.6,N
1709424795.9,286047004.2,N
1709424815.7,286047002.1,N
1709424835.6,286046999.8,N
1709424855.4,286047000.1,N
1709424875.2,286047001.5,N
1709424895.1,286047003.6,N
1709424896.0,286047003.6,N
1709424915.8,286047004.1,N
1709424935.7,286047004.4,N
1709424955.5,286047004.0,N
1709424975.3,286047004.0,N
1709424995.2,286047003.6,N
1709425015.0,286047001.9,N
1709425015.9,286047001.9,N
1709425035.8,286047001.5,N
1709425055.6,286047001.3,N
1709425075.4,286047003.6,N
1709425095.3,286047003.9,N
1709425115.1,286047003.7,N
1709425135.8,286047002.9,N
1709425155.7,286047005.5,Y
1709425175.5,286047001.6,P
1709425195.4,286046999.8,N
1709425215.2,286047002.8,N
1709425235.0,286046998.6,N
1709425235.9,286046998.6,N
1709425255.8,286046998.7,N
1709425275.6,286046998.4,N
1709425295.4,286046998.8,N
1709425315.3,286046999.0,N
1709425335.1,286046999.1,N
1709425355.9,286046999.2,N
1709425375.7,286046998.9,N
1709425395.5,286046998.1,N
1709425415.4,286047000.4,N
1709425435.2,286046999.8,N
1709425455.1,286047001.6,N
1709425456.0,286047001.6,N
1709425475.8,286047002.1,N
1709425495.6,286047001.7,N
1709425515.5,286047002.4,N
1709425535.3,286047002.4,N
1709425555.1,286047000.0,N
1709425575.9,286047002.2,N
1709425595.7,286047002.4,N
1709425615.6,286047002.3,N
1709425635.4,286047001.3,N
1709425655.2,286046999.7,N
1709425675.1,286046999.9,N
1709425676.0,286046999.9,N
1709425695.8,286046998.1,N
1709425715.6,286047000.7,N
1709425735.5,286047000.4,N
1709425755.3,286047000.2,N
1709425775.2,286047000.6,N
1709425795.9,286047000.5,N
1709425815.7,286047000.3,N
1709425835.6,286046998.3,N
1709425855.4,286046999.3,N
1709425875.2,286046998.1,N
1709425895.1,286046999.9,N
1709425896.0,286046999.9,N
1709425915.8,286047000.6,N
1709425935.7,286047000.4,N
1709425955.5,286046998.7,N
1709425975.3,286046998.3,N
1709425995.2,286046998.4,N
1709426015.0,286046998.6,N
1709426015.9,286046998.6,N
1709426035.7,286047000.0,N
1709426055.6,286047002.5,N
1709426075.4,286047001.8,N
1709426095.3,286047000.1,N
1709426115.1,286047000.2,N
1709426116.0,286047000.2,N
1709426135.8,286047002.7,N
1709426155.7,286047002.7,N
1709426175.5,286047000.0,N
1709426195.3,286047002.3,N
1709426215.2,286047000.0,N
1709426235.0,286047000.6,N
1709426235.9,286047000.6,N
1709426255.8,286047000.9,N
1709426275.6,286047000.2,N
1709426295.4,286047002.8,N
1709426315.3,286047002.0,N
1709426335.1,286047002.2,N
1709426355.9,286047002.3,N
1709426375.7,286047002.6,N
1709426395.6,286047001.6,N
1709426415.4,286047001.5,N
1709426435.2,286047002.0,N
1709426455.1,286047001.7,N
1709426456.0,286047001.7,N
1709426475.8,286047003.8,N
1709426495.6,286047004.1,N
1709426515.5,286047001.4,N
1709426535.3,286047002.3,N
1709426555.2,286047001.6,N
1709426575.9,286047002.4,N
1709426595.7,286047000.4,N
1709426615.6,286047000.7,N
1709426635.4,286046998.1,N
1709426655.3,286046998.7,N
1709426675.1,286047000.9,N
1709426695.8,286047001.1,N
1709426715.7,286047000.6,N
1709426735.5,286047000.5,N
1709426755.4,286047001.3,N
1709426775.2,286047004.0,Y
1709426795.0,286047001.6,P
1709426795.9,286047001.6,P
1709426815.8,286047001.9,P
1709426835.6,286047002.3,Y
1709426855.5,286046999.8,P
1709426875.3,286047000.2,N
1709426895.1,286046999.9,N
1709426915.9,286046998.2,N
1709426935.7,286047001.2,N
1709426955.6,286046998.2,N
1709426975.4,286047002.8,N
1709426995.2,286047002.6,N
1709427015.1,286047002.7,N
1709427016.0,286047002.7,N
1709427035.8,286047002.5,N
1709427055.7,286047002.3,N
1709427075.5,286046999.9,N
1709427095.3,286047000.7,N
1709427115.2,286047000.4,N
1709427135.0,286046999.8,N
1709427165.9,286047000.7,E
1709427175.9,286047000.9,N
1709427195.7,286046999.0,P
1709427215.5,286046996.8,P
1709427235.4,286046999.6,N
1709427255.2,286046999.3,N
1709427275.1,286047000.3,N
1709427276.0,286047000.3,N
1709427295.8,286047001.2,N
1709427315.6,286047001.2,N
1709427335.5,286046998.4,N
1709427355.3,286046998.2,N
1709427375.1,286046999.0,N
1709427395.9,286046998.3,N
1709427415.7,286047000.5,N
1709427435.6,286046998.1,N
1709427455.4,286047000.6,N
1709427475.2,286046998.5,N
1709427495.1,286046999.9,N
1709427496.0,286046999.9,N
1709427515.8,286047001.0,N
1709427535.6,286047001.1,N
1709427555.5,286047001.2,N
1709427575.3,286046999.4,N
1709427595.2,286046999.4,N
